Starlink 2723

decayed
NORAD ID: 48476 Int'l Des: 2021-040 Owner: SPXS Country: US Constellation: starlink
LEOCIRCULAR
グループ

Starlink 2723について

説明を読み込み中...

高度履歴

Altitude vs Time

uPlot chart will show altitude changes over time

軌道要素

1 48476U 21040BA 24360.53340339 .21510616 12558-4 37566-3 0 9998
2 48476 53.0249 336.1950 0001686 211.2963 253.1025 16.47857757201947
Epoch: Dec 25, 2024 • Age: 8479 hours

現在のステータス

Position data unavailable
打ち上げ日 May 9, 2021
運用期間 4.5 years
落下予定日 Dec 25, 2024
タイプ internet

技術仕様

分類 Payload
質量 260.00 kg
乾燥質量 248.00 kg
総質量 260.00 kg
長さ 0.20 m
直径 2.80 m
スパン 9.00 m
形状 Box + pan
製造者 SPXS
バスタイプ Starlink
フェーズステータス Reentered
所有者/国 SPXS/US

大規模コンステレーション

Loading constellations...